Time,TemperatureF,DewpointF,PressureIn,WindDirection,WindDirectionDegrees,WindSpeedMPH,WindSpeedGustMPH,Humidity,HourlyPrecipIn,Conditions,Clouds,dailyrainin,SoftwareType,DateUTC
2013-01-10 00:02:00,27.0,25.0,30.40,North,0,0.0,-999.0,92,0.00,,,-99.99,,2013-01-10 05:02:00,
2013-01-10 00:11:00,27.0,25.0,30.40,North,0,0.0,-999.0,92,0.00,,,-99.99,,2013-01-10 05:11:00,
2013-01-10 00:22:00,28.0,25.0,30.39,North,0,0.0,-999.0,86,0.00,,,-99.99,,2013-01-10 05:22:00,
2013-01-10 00:32:00,25.0,21.0,30.40,North,0,0.0,-999.0,85,0.00,,,-99.99,,2013-01-10 05:32:00,
2013-01-10 00:42:00,25.0,21.0,30.40,North,0,0.0,-999.0,85,0.00,,,-99.99,,2013-01-10 05:42:00,
2013-01-10 00:52:00,25.0,21.0,30.40,North,0,0.0,-999.0,85,0.00,,,-99.99,,2013-01-10 05:52:00,
2013-01-10 01:02:00,25.0,21.0,30.40,North,0,0.0,-999.0,85,0.00,,,-99.99,,2013-01-10 06:02:00,
2013-01-10 01:11:00,25.0,23.0,30.41,North,0,0.0,-999.0,92,0.00,,,-99.99,,2013-01-10 06:11:00,
2013-01-10 01:22:00,27.0,25.0,30.41,North,0,0.0,-999.0,92,0.00,,,-99.99,,2013-01-10 06:22:00,
2013-01-10 01:32:00,25.0,21.0,30.42,North,0,0.0,-999.0,85,0.00,,,-99.99,,2013-01-10 06:32:00,
2013-01-10 01:42:00,25.0,21.0,30.42,North,0,0.0,-999.0,85,0.00,,,-99.99,,2013-01-10 06:42:00,
2013-01-10 01:52:00,25.0,23.0,30.43,North,0,0.0,-999.0,92,0.00,,,-99.99,,2013-01-10 06:52:00,
2013-01-10 02:01:00,25.0,23.0,30.43,North,0,0.0,-999.0,92,0.00,,,-99.99,,2013-01-10 07:01:00,
2013-01-10 02:11:00,25.0,23.0,30.45,North,0,0.0,-999.0,92,0.00,,,-99.99,,2013-01-10 07:11:00,
2013-01-10 02:22:00,25.0,21.0,30.47,North,0,0.0,-999.0,85,0.00,,,-99.99,,2013-01-10 07:22:00,
2013-01-10 02:32:00,25.0,23.0,30.47,North,0,0.0,-999.0,92,0.00,,,-99.99,,2013-01-10 07:32:00,
2013-01-10 02:42:00,25.0,23.0,30.48,North,0,0.0,-999.0,92,0.00,,,-99.99,,2013-01-10 07:42:00,
2013-01-10 02:52:00,25.0,23.0,30.48,North,0,0.0,-999.0,92,0.00,,,-99.99,,2013-01-10 07:52:00,
2013-01-10 03:01:00,25.0,23.0,30.48,North,0,0.0,-999.0,92,0.00,,,-99.99,,2013-01-10 08:01:00,
2013-01-10 03:11:00,27.0,25.0,30.50,North,0,0.0,-999.0,92,0.00,,,-99.99,,2013-01-10 08:11:00,
2013-01-10 03:21:00,25.0,21.0,30.50,North,0,0.0,-999.0,85,0.00,,,-99.99,,2013-01-10 08:21:00,
2013-01-10 03:32:00,25.0,23.0,30.51,North,0,0.0,-999.0,92,0.00,,,-99.99,,2013-01-10 08:32:00,
2013-01-10 03:42:00,25.0,21.0,30.51,North,0,0.0,-999.0,85,0.00,,,-99.99,,2013-01-10 08:42:00,
2013-01-10 03:52:00,25.0,25.0,30.51,North,0,0.0,-999.0,100,0.00,,,-99.99,,2013-01-10 08:52:00,
2013-01-10 04:02:00,25.0,25.0,30.51,North,0,0.0,-999.0,100,0.00,,,-99.99,,2013-01-10 09:02:00,
2013-01-10 04:11:00,25.0,21.0,30.51,North,0,0.0,-999.0,85,0.00,,,-99.99,,2013-01-10 09:11:00,
2013-01-10 04:21:00,25.0,23.0,30.51,North,0,0.0,-999.0,92,0.00,,,-99.99,,2013-01-10 09:21:00,
2013-01-10 04:32:00,25.0,23.0,30.50,North,0,0.0,-999.0,92,0.00,,,-99.99,,2013-01-10 09:32:00,
2013-01-10 04:42:00,25.0,23.0,30.51,North,0,0.0,-999.0,92,0.00,,,-99.99,,2013-01-10 09:42:00,
2013-01-10 04:52:00,21.0,21.0,30.50,North,0,0.0,-999.0,100,0.00,,,-99.99,,2013-01-10 09:52:00,
2013-01-10 05:02:00,21.0,21.0,30.50,North,0,0.0,-999.0,100,0.00,,,-99.99,,2013-01-10 10:02:00,
2013-01-10 05:11:00,25.0,21.0,30.49,North,0,0.0,-999.0,85,0.00,,,-99.99,,2013-01-10 10:11:00,
2013-01-10 05:21:00,23.0,21.0,30.49,North,0,0.0,-999.0,92,0.00,,,-99.99,,2013-01-10 10:21:00,
2013-01-10 05:32:00,23.0,21.0,30.50,North,0,0.0,-999.0,92,0.00,,,-99.99,,2013-01-10 10:32:00,
2013-01-10 05:42:00,25.0,23.0,30.50,North,0,0.0,-999.0,92,0.00,,,-99.99,,2013-01-10 10:42:00,
2013-01-10 05:52:00,23.0,21.0,30.50,North,0,0.0,-999.0,92,0.00,,,-99.99,,2013-01-10 10:52:00,
2013-01-10 06:02:00,23.0,21.0,30.50,North,0,0.0,-999.0,92,0.00,,,-99.99,,2013-01-10 11:02:00,
2013-01-10 06:11:00,21.0,21.0,30.50,North,0,0.0,-999.0,100,0.00,,,-99.99,,2013-01-10 11:11:00,
2013-01-10 06:22:00,23.0,21.0,30.50,North,0,0.0,-999.0,92,0.00,,,-99.99,,2013-01-10 11:22:00,
2013-01-10 06:32:00,21.0,21.0,30.51,North,0,0.0,-999.0,100,0.00,,,-99.99,,2013-01-10 11:32:00,
2013-01-10 06:42:00,21.0,21.0,30.51,North,0,0.0,-999.0,100,0.00,,,-99.99,,2013-01-10 11:42:00,
2013-01-10 06:52:00,21.0,21.0,30.52,North,0,0.0,-999.0,100,0.00,,,-99.99,,2013-01-10 11:52:00,
2013-01-10 07:02:00,21.0,21.0,30.52,North,0,0.0,-999.0,100,0.00,,,-99.99,,2013-01-10 12:02:00,
2013-01-10 07:11:00,21.0,21.0,30.52,North,0,0.0,-999.0,100,0.00,,,0.00,,2013-01-10 12:11:00,
2013-01-10 07:22:00,21.0,21.0,30.53,North,0,0.0,-999.0,100,0.00,,,0.00,,2013-01-10 12:22:00,
2013-01-10 07:32:00,21.0,21.0,30.53,North,0,0.0,-999.0,100,0.00,,,0.00,,2013-01-10 12:32:00,
2013-01-10 07:42:00,21.0,19.0,30.53,North,0,0.0,-999.0,92,0.00,,,0.00,,2013-01-10 12:42:00,
2013-01-10 07:52:00,21.0,21.0,30.54,North,0,0.0,-999.0,100,0.00,,,0.00,,2013-01-10 12:52:00,
2013-01-10 08:01:00,21.0,21.0,30.54,North,0,0.0,-999.0,100,0.00,,,0.00,,2013-01-10 13:01:00,
2013-01-10 08:11:00,21.0,21.0,30.54,North,0,0.0,-999.0,100,0.00,,,-99.99,,2013-01-10 13:11:00,
2013-01-10 08:21:00,21.0,19.0,30.54,North,0,0.0,-999.0,92,0.00,,,-99.99,,2013-01-10 13:21:00,
2013-01-10 08:32:00,21.0,19.0,30.54,North,0,0.0,-999.0,92,0.00,,,-99.99,,2013-01-10 13:32:00,
2013-01-10 08:42:00,21.0,19.0,30.54,North,0,0.0,-999.0,92,0.00,,,-99.99,,2013-01-10 13:42:00,
2013-01-10 08:52:00,21.0,19.0,30.54,North,0,0.0,-999.0,92,0.00,,,-99.99,,2013-01-10 13:52:00,
2013-01-10 09:01:00,21.0,19.0,30.54,North,0,0.0,-999.0,92,0.00,,,-99.99,,2013-01-10 14:01:00,
2013-01-10 09:11:00,21.0,21.0,30.54,North,0,0.0,-999.0,100,0.00,,,-99.99,,2013-01-10 14:11:00,
2013-01-10 09:22:00,23.0,21.0,30.53,North,0,0.0,-999.0,92,0.00,,,-99.99,,2013-01-10 14:22:00,
2013-01-10 09:32:00,23.0,23.0,30.53,North,0,0.0,-999.0,100,0.00,,,-99.99,,2013-01-10 14:32:00,
2013-01-10 09:42:00,25.0,25.0,30.53,North,0,0.0,-999.0,100,0.00,,,-99.99,,2013-01-10 14:42:00,
2013-01-10 09:52:00,27.0,25.0,30.53,North,0,0.0,-999.0,92,0.00,,,-99.99,,2013-01-10 14:52:00,
2013-01-10 10:02:00,27.0,25.0,30.53,North,0,0.0,-999.0,92,0.00,,,-99.99,,2013-01-10 15:02:00,
2013-01-10 10:11:00,28.0,27.0,30.53,North,0,0.0,-999.0,92,0.00,,,-99.99,,2013-01-10 15:11:00,
2013-01-10 10:22:00,30.0,28.0,30.53,North,0,0.0,-999.0,92,0.00,,,-99.99,,2013-01-10 15:22:00,
2013-01-10 10:32:00,32.0,28.0,30.53,North,0,0.0,-999.0,86,0.00,,,-99.99,,2013-01-10 15:32:00,
2013-01-10 10:42:00,34.0,28.0,30.53,North,0,0.0,-999.0,80,0.00,,,-99.99,,2013-01-10 15:42:00,
2013-01-10 10:52:00,36.0,28.0,30.53,North,0,0.0,-999.0,74,0.00,,,-99.99,,2013-01-10 15:52:00,
2013-01-10 11:02:00,36.0,28.0,30.53,North,0,0.0,-999.0,74,0.00,,,-99.99,,2013-01-10 16:02:00,
2013-01-10 11:12:00,36.0,28.0,30.53,South,170,3.0,-999.0,74,0.00,,,-99.99,,2013-01-10 16:12:00,
2013-01-10 11:22:00,37.0,28.0,30.52,SSE,150,6.0,-999.0,69,0.00,,,-99.99,,2013-01-10 16:22:00,
2013-01-10 11:32:00,37.0,28.0,30.52,SSE,160,6.0,-999.0,69,0.00,,,-99.99,,2013-01-10 16:32:00,
2013-01-10 11:42:00,39.0,28.0,30.52,SSE,160,7.0,-999.0,64,0.00,,,-99.99,,2013-01-10 16:42:00,
2013-01-10 11:52:00,39.0,28.0,30.51,SSE,160,6.0,-999.0,64,0.00,,,-99.99,,2013-01-10 16:52:00,
2013-01-10 12:02:00,39.0,28.0,30.51,SSE,160,6.0,-999.0,64,0.00,,,-99.99,,2013-01-10 17:02:00,
2013-01-10 12:11:00,39.0,28.0,30.50,SSE,160,7.0,-999.0,64,0.00,,,-99.99,,2013-01-10 17:11:00,
2013-01-10 12:21:00,39.0,28.0,30.50,South,170,6.0,-999.0,64,0.00,,,-99.99,,2013-01-10 17:21:00,
2013-01-10 12:32:00,39.0,28.0,30.49,SSE,150,7.0,-999.0,64,0.00,,,-99.99,,2013-01-10 17:32:00,
2013-01-10 12:42:00,41.0,28.0,30.49,SSE,160,6.0,-999.0,60,0.00,,,-99.99,,2013-01-10 17:42:00,
2013-01-10 12:52:00,41.0,28.0,30.48,South,170,8.0,-999.0,60,0.00,,,-99.99,,2013-01-10 17:52:00,
2013-01-10 13:02:00,41.0,28.0,30.48,South,170,8.0,-999.0,60,0.00,,,-99.99,,2013-01-10 18:02:00,
2013-01-10 13:11:00,41.0,28.0,30.47,South,170,7.0,-999.0,60,0.00,,,-99.99,,2013-01-10 18:11:00,
2013-01-10 13:22:00,43.0,28.0,30.46,South,170,3.0,-999.0,56,0.00,,,-99.99,,2013-01-10 18:22:00,
2013-01-10 13:32:00,43.0,28.0,30.45,SSW,200,6.0,-999.0,56,0.00,,,-99.99,,2013-01-10 18:32:00,
2013-01-10 13:42:00,43.0,28.0,30.45,South,170,3.0,-999.0,56,0.00,,,-99.99,,2013-01-10 18:42:00,
2013-01-10 13:52:00,43.0,28.0,30.44,South,170,6.0,-999.0,56,0.00,,,-99.99,,2013-01-10 18:52:00,
2013-01-10 14:02:00,43.0,28.0,30.44,South,170,6.0,-999.0,56,0.00,,,-99.99,,2013-01-10 19:02:00,
2013-01-10 14:12:00,45.0,28.0,30.43,SSE,160,5.0,-999.0,52,0.00,,,-99.99,,2013-01-10 19:12:00,
2013-01-10 14:22:00,43.0,28.0,30.42,ESE,120,7.0,-999.0,56,0.00,,,-99.99,,2013-01-10 19:22:00,
2013-01-10 14:32:00,43.0,28.0,30.42,SE,130,6.0,-999.0,56,0.00,,,-99.99,,2013-01-10 19:32:00,
2013-01-10 14:42:00,43.0,28.0,30.42,ESE,120,8.0,-999.0,56,0.00,,,-99.99,,2013-01-10 19:42:00,
2013-01-10 14:52:00,43.0,28.0,30.42,South,170,5.0,-999.0,56,0.00,,,-99.99,,2013-01-10 19:52:00,
2013-01-10 15:02:00,43.0,28.0,30.42,South,170,5.0,-999.0,56,0.00,,,-99.99,,2013-01-10 20:02:00,
2013-01-10 15:11:00,45.0,28.0,30.41,SSE,160,7.0,-999.0,52,0.00,,,-99.99,,2013-01-10 20:11:00,
2013-01-10 15:22:00,45.0,28.0,30.41,South,170,5.0,-999.0,52,0.00,,,-99.99,,2013-01-10 20:22:00,
2013-01-10 15:32:00,43.0,28.0,30.40,SSE,150,6.0,-999.0,56,0.00,,,-99.99,,2013-01-10 20:32:00,
2013-01-10 15:42:00,43.0,28.0,30.40,South,180,7.0,-999.0,56,0.00,,,-99.99,,2013-01-10 20:42:00,
2013-01-10 15:52:00,43.0,28.0,30.39,SSE,150,6.0,-999.0,56,0.00,,,-99.99,,2013-01-10 20:52:00,
2013-01-10 16:02:00,43.0,28.0,30.39,SSE,150,6.0,-999.0,56,0.00,,,-99.99,,2013-01-10 21:02:00,
2013-01-10 16:11:00,43.0,27.0,30.39,ESE,120,6.0,-999.0,52,0.00,,,-99.99,,2013-01-10 21:11:00,
2013-01-10 16:22:00,43.0,30.0,30.39,East,90,5.0,-999.0,60,0.00,,,-99.99,,2013-01-10 21:22:00,
2013-01-10 16:32:00,43.0,30.0,30.38,East,100,6.0,-999.0,60,0.00,,,-99.99,,2013-01-10 21:32:00,
2013-01-10 16:42:00,41.0,30.0,30.38,East,100,6.0,-999.0,65,0.00,,,-99.99,,2013-01-10 21:42:00,
2013-01-10 16:52:00,41.0,30.0,30.38,East,100,5.0,-999.0,65,0.00,,,-99.99,,2013-01-10 21:52:00,
2013-01-10 17:02:00,41.0,30.0,30.38,East,100,5.0,-999.0,65,0.00,,,-99.99,,2013-01-10 22:02:00,
2013-01-10 17:12:00,39.0,30.0,30.37,East,100,7.0,-999.0,69,0.00,,,-99.99,,2013-01-10 22:12:00,
2013-01-10 17:22:00,39.0,30.0,30.37,ESE,110,7.0,-999.0,69,0.00,,,-99.99,,2013-01-10 22:22:00,
2013-01-10 17:32:00,39.0,28.0,30.37,SE,130,6.0,-999.0,64,0.00,,,-99.99,,2013-01-10 22:32:00,
2013-01-10 17:42:00,39.0,28.0,30.37,ESE,120,7.0,-999.0,64,0.00,,,-99.99,,2013-01-10 22:42:00,
2013-01-10 18:02:00,39.0,28.0,30.36,ESE,110,5.0,-999.0,64,0.00,,,-99.99,,2013-01-10 23:02:00,
2013-01-10 18:11:00,39.0,28.0,30.36,ESE,120,5.0,-999.0,64,0.00,,,-99.99,,2013-01-10 23:11:00,
2013-01-10 18:22:00,39.0,28.0,30.36,ESE,120,6.0,-999.0,64,0.00,,,-99.99,,2013-01-10 23:22:00,
2013-01-10 18:32:00,39.0,28.0,30.35,ESE,120,7.0,-999.0,64,0.00,,,-99.99,,2013-01-10 23:32:00,
2013-01-10 18:42:00,39.0,28.0,30.35,ESE,110,6.0,-999.0,64,0.00,,,-99.99,,2013-01-10 23:42:00,
2013-01-10 18:52:00,39.0,28.0,30.34,ESE,110,7.0,-999.0,64,0.00,,,-99.99,,2013-01-10 23:52:00,
2013-01-10 19:02:00,39.0,28.0,30.34,ESE,110,7.0,-999.0,64,0.00,,,-99.99,,2013-01-11 00:02:00,
2013-01-10 19:11:00,37.0,28.0,30.33,East,90,7.0,-999.0,69,0.00,,,-99.99,,2013-01-11 00:11:00,
2013-01-10 19:22:00,37.0,28.0,30.32,East,100,7.0,-999.0,69,0.00,,,-99.99,,2013-01-11 00:22:00,
2013-01-10 19:32:00,37.0,28.0,30.32,ESE,110,7.0,-999.0,69,0.00,,,-99.99,,2013-01-11 00:32:00,
2013-01-10 19:42:00,37.0,28.0,30.32,ESE,110,9.0,-999.0,69,0.00,,,-99.99,,2013-01-11 00:42:00,
2013-01-10 19:52:00,37.0,28.0,30.31,ESE,110,8.0,-999.0,69,0.00,,,-99.99,,2013-01-11 00:52:00,
2013-01-10 20:02:00,37.0,28.0,30.31,ESE,110,8.0,-999.0,69,0.00,,,-99.99,,2013-01-11 01:02:00,
2013-01-10 20:12:00,37.0,28.0,30.32,ESE,120,9.0,-999.0,69,0.00,,,-99.99,,2013-01-11 01:12:00,
2013-01-10 20:21:00,36.0,28.0,30.30,ESE,120,9.0,-999.0,74,0.00,,,-99.99,,2013-01-11 01:21:00,
2013-01-10 20:32:00,37.0,28.0,30.30,ESE,120,10.0,-999.0,69,0.00,,,-99.99,,2013-01-11 01:32:00,
2013-01-10 20:42:00,36.0,28.0,30.30,ESE,120,9.0,-999.0,74,0.00,,,-99.99,,2013-01-11 01:42:00,
2013-01-10 20:52:00,36.0,28.0,30.29,ESE,120,8.0,-999.0,74,0.00,,,-99.99,,2013-01-11 01:52:00,
2013-01-10 21:02:00,36.0,28.0,30.29,ESE,120,8.0,-999.0,74,0.00,,,-99.99,,2013-01-11 02:02:00,
2013-01-10 21:11:00,36.0,28.0,30.28,SE,140,8.0,-999.0,74,0.00,,,-99.99,,2013-01-11 02:11:00,
2013-01-10 21:22:00,36.0,28.0,30.27,SE,130,7.0,-999.0,74,0.00,,,-99.99,,2013-01-11 02:22:00,
2013-01-10 21:32:00,36.0,28.0,30.27,SE,140,7.0,-999.0,74,0.00,,,-99.99,,2013-01-11 02:32:00,
2013-01-10 21:42:00,36.0,28.0,30.27,SE,140,6.0,-999.0,74,0.00,,,-99.99,,2013-01-11 02:42:00,
2013-01-10 21:52:00,36.0,28.0,30.27,ESE,110,5.0,-999.0,74,0.00,,,-99.99,,2013-01-11 02:52:00,
2013-01-10 22:11:00,36.0,28.0,30.25,East,100,5.0,-999.0,74,0.00,,,-99.99,,2013-01-11 03:11:00,
2013-01-10 22:21:00,36.0,28.0,30.24,East,100,7.0,-999.0,74,0.00,,,-99.99,,2013-01-11 03:21:00,
2013-01-10 22:32:00,36.0,30.0,30.22,East,100,7.0,-999.0,80,0.00,,,-99.99,,2013-01-11 03:32:00,
2013-01-10 22:42:00,36.0,30.0,30.22,East,90,6.0,-999.0,80,0.00,,,-99.99,,2013-01-11 03:42:00,
2013-01-10 22:52:00,36.0,30.0,30.21,ESE,110,6.0,-999.0,80,0.00,,,-99.99,,2013-01-11 03:52:00,
2013-01-10 23:01:00,36.0,30.0,30.21,ESE,110,6.0,-999.0,80,0.00,,,-99.99,,2013-01-11 04:01:00,
2013-01-10 23:11:00,36.0,30.0,30.20,East,100,7.0,-999.0,80,0.00,,,-99.99,,2013-01-11 04:11:00,
2013-01-10 23:21:00,36.0,32.0,30.19,ESE,110,6.0,-999.0,86,0.00,,,-99.99,,2013-01-11 04:21:00,
2013-01-10 23:32:00,36.0,32.0,30.18,East,100,6.0,-999.0,86,0.01,,,-99.99,,2013-01-11 04:32:00,
2013-01-10 23:42:00,36.0,32.0,30.17,East,90,7.0,-999.0,86,0.01,,,-99.99,,2013-01-11 04:42:00,
2013-01-10 23:52:00,36.0,34.0,30.16,ESE,110,7.0,-999.0,93,0.02,,,-99.99,,2013-01-11 04:52:00,